TimeCST,TemperatureF,Dew PointF,Humidity,Sea Level PressureIn,VisibilityMPH,Wind Direction,Wind SpeedMPH,Gust SpeedMPH,PrecipitationIn,Events,Conditions,WindDirDegrees,DateUTC
12:15 AM,18.5,9.1,67,30.23,10.0,Calm,Calm,-,N/A,,Mostly Cloudy,0,2014-01-08 06:15:00
12:35 AM,18.9,9.3,66,30.23,10.0,Calm,Calm,-,N/A,,Overcast,0,2014-01-08 06:35:00
12:55 AM,18.9,9.3,66,30.23,10.0,Calm,Calm,-,N/A,,Overcast,0,2014-01-08 06:55:00
1:15 AM,18.9,9.3,66,30.23,10.0,Calm,Calm,-,N/A,,Overcast,0,2014-01-08 07:15:00
1:35 AM,18.5,10.0,70,30.24,10.0,North,3.5,-,N/A,,Overcast,350,2014-01-08 07:35:00
1:55 AM,18.1,10.8,73,30.24,4.0,NNW,4.6,-,N/A,Snow,Light Snow,330,2014-01-08 07:55:00
2:15 AM,17.6,12.6,81,30.24,2.5,North,3.5,-,N/A,Snow,Light Snow,360,2014-01-08 08:15:00
2:35 AM,17.4,13.5,84,30.24,4.0,Calm,Calm,-,N/A,Snow,Light Snow,0,2014-01-08 08:35:00
2:55 AM,17.6,13.6,84,30.25,5.0,Calm,Calm,-,N/A,Snow,Light Snow,0,2014-01-08 08:55:00
3:15 AM,17.6,13.8,85,30.26,3.0,Calm,Calm,-,N/A,Snow,Light Snow,0,2014-01-08 09:15:00
3:35 AM,17.6,14.0,86,30.26,5.0,Calm,Calm,-,N/A,Snow,Light Snow,0,2014-01-08 09:35:00
3:55 AM,17.6,14.4,87,30.26,1.8,Calm,Calm,-,N/A,Snow,Light Snow,0,2014-01-08 09:55:00
4:15 AM,17.4,14.5,88,30.25,3.0,North,5.8,-,N/A,Snow,Light Snow,10,2014-01-08 10:15:00
4:35 AM,17.4,14.7,89,30.25,7.0,NNE,6.9,-,N/A,Snow,Light Snow,20,2014-01-08 10:35:00
4:55 AM,17.6,14.5,88,30.26,10.0,North,4.6,-,N/A,,Overcast,10,2014-01-08 10:55:00
5:15 AM,17.6,14.0,86,30.26,10.0,North,4.6,-,N/A,,Overcast,10,2014-01-08 11:15:00
5:35 AM,17.6,11.8,78,30.26,10.0,NNE,6.9,-,N/A,,Overcast,20,2014-01-08 11:35:00
5:55 AM,17.6,10.9,75,30.27,10.0,NNE,8.1,-,N/A,,Overcast,20,2014-01-08 11:55:00
6:15 AM,17.4,9.7,72,30.27,10.0,North,6.9,-,N/A,,Overcast,10,2014-01-08 12:15:00
6:35 AM,17.2,9.9,73,30.27,10.0,North,5.8,-,N/A,,Overcast,10,2014-01-08 12:35:00
6:55 AM,17.1,9.5,72,30.29,10.0,NNE,5.8,-,N/A,,Overcast,30,2014-01-08 12:55:00
7:15 AM,16.9,9.5,73,30.30,10.0,NNE,6.9,-,N/A,,Overcast,30,2014-01-08 13:15:00
7:35 AM,16.5,9.0,72,30.31,10.0,NE,4.6,-,N/A,,Overcast,40,2014-01-08 13:35:00
7:55 AM,16.3,8.4,71,30.31,10.0,NNE,5.8,-,N/A,,Overcast,30,2014-01-08 13:55:00
8:15 AM,16.3,8.8,72,30.32,10.0,NE,5.8,-,N/A,,Overcast,50,2014-01-08 14:15:00
8:35 AM,16.3,8.1,70,30.33,10.0,NE,8.1,-,N/A,,Overcast,40,2014-01-08 14:35:00
8:55 AM,16.5,8.4,70,30.34,10.0,NE,8.1,-,N/A,,Overcast,50,2014-01-08 14:55:00
9:15 AM,16.7,8.6,70,30.35,10.0,NE,10.4,-,N/A,,Overcast,50,2014-01-08 15:15:00
9:35 AM,17.1,8.8,70,30.36,10.0,ENE,6.9,-,N/A,,Overcast,70,2014-01-08 15:35:00
9:55 AM,17.4,8.8,69,30.37,10.0,East,8.1,-,N/A,,Overcast,80,2014-01-08 15:55:00
10:15 AM,17.6,8.6,68,30.38,10.0,ENE,8.1,-,N/A,,Overcast,70,2014-01-08 16:15:00
10:35 AM,17.6,8.2,67,30.38,10.0,ENE,5.8,-,N/A,,Overcast,70,2014-01-08 16:35:00
10:55 AM,18.0,9.5,70,30.39,3.0,ENE,4.6,-,N/A,Snow,Light Snow,70,2014-01-08 16:55:00
11:15 AM,17.8,9.7,71,30.38,3.0,East,5.8,-,N/A,Snow,Light Snow,90,2014-01-08 17:15:00
11:35 AM,17.8,11.1,75,30.38,2.0,East,4.6,-,N/A,Snow,Light Snow,100,2014-01-08 17:35:00
11:55 AM,18.3,12.0,76,30.37,2.0,East,8.1,-,N/A,Snow,Light Snow,100,2014-01-08 17:55:00
12:15 PM,18.3,12.6,78,30.37,1.8,East,5.8,-,N/A,Snow,Light Snow,100,2014-01-08 18:15:00
12:35 PM,18.5,12.9,79,30.36,2.0,ESE,4.6,-,N/A,Snow,Light Snow,120,2014-01-08 18:35:00
12:55 PM,19.4,13.3,77,30.36,2.0,ESE,4.6,-,N/A,Snow,Light Snow,120,2014-01-08 18:55:00
1:15 PM,19.9,13.3,75,30.35,4.0,East,4.6,-,N/A,Snow,Light Snow,100,2014-01-08 19:15:00
1:35 PM,20.1,13.3,75,30.35,4.0,East,3.5,-,N/A,Snow,Light Snow,80,2014-01-08 19:35:00
1:55 PM,20.5,13.1,73,30.34,7.0,ENE,5.8,-,N/A,,Mostly Cloudy,60,2014-01-08 19:55:00
2:15 PM,20.8,12.0,69,30.34,10.0,ENE,4.6,-,N/A,,Mostly Cloudy,70,2014-01-08 20:15:00
2:35 PM,21.2,12.0,68,30.34,10.0,East,5.8,-,N/A,,Overcast,80,2014-01-08 20:35:00
2:55 PM,21.7,11.8,66,30.34,10.0,East,5.8,-,N/A,,Mostly Cloudy,80,2014-01-08 20:55:00
3:15 PM,21.4,11.1,65,30.35,10.0,East,8.1,-,N/A,,Mostly Cloudy,80,2014-01-08 21:15:00
3:35 PM,21.7,10.4,62,30.35,10.0,East,5.8,-,N/A,,Scattered Clouds,80,2014-01-08 21:35:00
3:55 PM,21.2,10.4,63,30.35,10.0,ENE,5.8,-,N/A,,Overcast,70,2014-01-08 21:55:00
4:15 PM,21.0,10.6,64,30.35,10.0,ENE,5.8,-,N/A,,Overcast,70,2014-01-08 22:15:00
4:35 PM,20.5,10.2,65,30.35,10.0,ENE,8.1,-,N/A,,Overcast,70,2014-01-08 22:35:00
4:55 PM,20.3,10.0,65,30.35,10.0,ENE,6.9,-,N/A,,Overcast,60,2014-01-08 22:55:00
5:15 PM,19.9,9.9,65,30.35,10.0,ENE,5.8,-,N/A,,Overcast,70,2014-01-08 23:15:00
5:35 PM,19.8,9.9,65,30.36,10.0,East,6.9,-,N/A,,Overcast,80,2014-01-08 23:35:00
5:55 PM,19.4,9.9,66,30.36,10.0,East,6.9,-,N/A,,Overcast,80,2014-01-08 23:55:00
6:15 PM,19.4,10.2,68,30.36,10.0,East,6.9,-,N/A,,Overcast,90,2014-01-09 00:15:00
6:35 PM,19.2,9.5,66,30.36,10.0,East,8.1,-,N/A,,Overcast,100,2014-01-09 00:35:00
6:55 PM,18.9,10.0,69,30.36,10.0,East,9.2,-,N/A,,Overcast,100,2014-01-09 00:55:00
7:15 PM,18.5,9.5,68,30.37,10.0,East,9.2,-,N/A,,Overcast,100,2014-01-09 01:15:00
7:35 PM,18.1,9.1,68,30.37,10.0,ESE,8.1,-,N/A,,Overcast,110,2014-01-09 01:35:00
7:55 PM,18.0,9.3,69,30.37,10.0,East,8.1,-,N/A,,Overcast,90,2014-01-09 01:55:00
8:15 PM,18.0,9.1,68,30.37,10.0,East,9.2,-,N/A,,Overcast,90,2014-01-09 02:15:00
8:35 PM,17.6,8.8,68,30.37,10.0,East,8.1,-,N/A,,Overcast,100,2014-01-09 02:35:00
8:55 PM,17.4,8.6,68,30.38,10.0,East,8.1,-,N/A,,Overcast,90,2014-01-09 02:55:00
9:15 PM,17.1,8.2,68,30.38,10.0,East,9.2,-,N/A,,Overcast,100,2014-01-09 03:15:00
9:35 PM,16.7,7.7,68,30.38,10.0,East,9.2,-,N/A,,Overcast,100,2014-01-09 03:35:00
9:55 PM,16.2,7.7,69,30.38,10.0,East,9.2,-,N/A,,Overcast,100,2014-01-09 03:55:00
10:15 PM,15.6,7.7,71,30.38,10.0,East,8.1,-,N/A,,Overcast,90,2014-01-09 04:15:00
10:35 PM,14.2,6.8,73,30.37,10.0,East,6.9,-,N/A,,Overcast,90,2014-01-09 04:35:00
10:55 PM,12.9,5.9,74,30.37,10.0,East,6.9,-,N/A,,Overcast,100,2014-01-09 04:55:00
11:15 PM,11.3,4.8,75,30.36,10.0,East,5.8,-,N/A,,Scattered Clouds,100,2014-01-09 05:15:00
11:35 PM,10.9,4.8,76,30.36,10.0,East,5.8,-,N/A,,Scattered Clouds,100,2014-01-09 05:35:00
11:55 PM,11.3,5.0,76,30.36,10.0,East,4.6,-,N/A,,Overcast,100,2014-01-09 05:55:00